Location: Harwich
(41.7160°N, 69.9939°W)
Time: 13:42:12
(UTC+01:00)

A-11 Canister half - Pass Details

Date: 29 November 2023
Orbit: 1526 x 1682 km, 47.3° (Epoch: 01 March)

Event Time Altitude Azimuth Distance (km) Brightness Sun altitude
Rises 03:30:44 0° 252° (WSW) 4,927 11.9 -58.1°
Reaches altitude 10° 03:33:55 10° 253° (WSW) 3,936 11.3 -58.6°
Enters shadow 03:34:46 13° 254° (WSW) 3,677 11.1 -58.7°
Maximum altitude 03:44:05 77° 340° (NNW) 1,693 - -60.2°
Drops below altitude 10° 03:54:00 10° 67° (ENE) 3,850 - -61.7°
Sets 03:57:06 0° 69° (ENE) 4,817 - -62.1°
